Location: Poughquag
(41.6090°N, 73.6820°W)
Time: 12:21:15
(UTC-04:00)

Tiros 1 despin weight - Pass Details

Date: 03 June 2020
Orbit: 593 x 642 km, 48.2° (Epoch: 07 July)

Event Time Altitude Azimuth Distance (km) Brightness Sun altitude
Rises 13:35:12 0° 293° (WNW) 2,909 ? 68.9°
Reaches altitude 10° 13:37:40 10° 300° (WNW) 1,993 ? 68.7°
Maximum altitude 13:41:59 40° 11° (N) 911 ? 68.3°
Drops below altitude 10° 13:46:14 10° 82° (E) 1,959 ? 67.8°
Sets 13:48:38 0° 89° (E) 2,854 ? 67.6°
